| time (UTC) | temp F | wind direction | speed knots | gust knots | rain 1hr in | rain 24hr in | rain mn in | humidity % | barometer mb |
| 20260502202312 | 59 | 37 | 0.9 | 3.5 | 0.00 | 0.05 | 0.05 | 48 | 1010.2 |
| 20260502201331 | 59 | 321 | 0.9 | 1.7 | 0.00 | 0.05 | 0.05 | 54 | 1010.3 |
| 20260502200323 | 58 | 283 | 0.0 | 1.7 | 0.00 | 0.05 | 0.05 | 50 | 1010.5 |
| 20260502195316 | 58 | 281 | 1.7 | 2.6 | 0.00 | 0.05 | 0.05 | 54 | 1010.6 |
| 20260502194338 | 57 | 36 | 0.9 | 5.2 | 0.00 | 0.05 | 0.05 | 55 | 1010.7 |
| 20260502193334 | 57 | 293 | 0.9 | 2.6 | 0.00 | 0.05 | 0.05 | 56 | 1010.9 |
| 20260502192329 | 56 | 276 | 0.0 | 3.5 | 0.00 | 0.05 | 0.05 | 58 | 1011.1 |
| 20260502191324 | 56 | 339 | 0.9 | 2.6 | 0.00 | 0.05 | 0.05 | 60 | 1011.2 |
| 20260502190317 | 55 | 287 | 0.9 | 4.3 | 0.00 | 0.05 | 0.05 | 58 | 1011.4 |
| 20260502185311 | 54 | 277 | 0.9 | 2.6 | 0.00 | 0.05 | 0.05 | 62 | 1011.4 |
| 20260502184334 | 54 | 285 | 0.9 | 3.5 | 0.00 | 0.05 | 0.05 | 63 | 1011.7 |
| 20260502183331 | 53 | 278 | 0.9 | 2.6 | 0.00 | 0.05 | 0.05 | 69 | 1011.6 |
| 20260502182326 | 52 | 289 | 0.0 | 2.6 | 0.00 | 0.05 | 0.05 | 71 | 1011.8 |
| 20260502181319 | 51 | 284 | 0.9 | 2.6 | 0.00 | 0.05 | 0.05 | 72 | 1011.8 |
| 20260502180329 | 51 | 281 | 0.0 | 2.6 | 0.00 | 0.05 | 0.05 | 73 | 1011.8 |
| 20260502170332 | 50 | 252 | 0.0 | 4.3 | 0.00 | 0.05 | 0.05 | 78 | 1011.9 |
| 20260502164318 | 53 | 77 | 1.7 | 5.2 | 0.00 | 0.05 | 0.05 | 75 | 1011.6 |
| 20260502163312 | 55 | 321 | 0.9 | 3.5 | 0.00 | 0.05 | 0.05 | 69 | 1011.4 |
| 20260502162330 | 56 | 340 | 0.0 | 0.9 | 0.00 | 0.05 | 0.05 | 69 | 1011.4 |
| 20260502161352 | 56 | 2 | 0.0 | 1.7 | 0.00 | 0.05 | 0.05 | 69 | 1011.3 |
| 20260502160352 | 56 | 15 | 0.9 | 2.6 | 0.00 | 0.05 | 0.05 | 69 | 1011.6 |
| 20260502152329 | 55 | 240 | 0.0 | 0.9 | 0.00 | 0.05 | 0.05 | 78 | 1011.7 |
| 20260502151321 | 54 | 136 | 0.0 | 0.9 | 0.00 | 0.05 | 0.05 | 76 | 1012.0 |
| 20260502150340 | 54 | 184 | 0.0 | 0.9 | 0.00 | 0.05 | 0.05 | 78 | 1012.0 |
| 20260502130315 | 49 | 276 | 0.0 | 0.9 | 0.00 | 0.05 | 0.05 | 93 | 1012.3 |
| 20260502123321 | 48 | 278 | 0.0 | 0.0 | 0.00 | 0.05 | 0.05 | 95 | 1012.2 |
| 20260502122315 | 48 | 278 | 0.0 | 0.0 | 0.00 | 0.05 | 0.05 | 95 | 1012.1 |
| 20260502121354 | 48 | 278 | 0.0 | 0.9 | 0.00 | 0.05 | 0.05 | 95 | 1012.2 |
| 20260502120330 | 48 | 125 | 0.0 | 0.0 | 0.01 | 0.05 | 0.05 | 95 | 1012.2 |
| 20260502115320 | 48 | 125 | 0.0 | 0.9 | 0.02 | 0.05 | 0.05 | 95 | 1012.0 |
| 20260502114340 | 47 | 124 | 0.0 | 0.9 | 0.03 | 0.05 | 0.05 | 95 | 1012.1 |
| 20260502113315 | 47 | 124 | 0.0 | 0.9 | 0.03 | 0.05 | 0.05 | 95 | 1012.1 |
| 20260502112356 | 46 | 124 | 0.0 | 0.0 | 0.03 | 0.05 | 0.05 | 95 | 1012.3 |
| 20260502111328 | 46 | 124 | 0.0 | 0.0 | 0.03 | 0.05 | 0.05 | 95 | 1012.4 |
| 20260502110325 | 46 | 124 | 0.0 | 0.9 | 0.02 | 0.04 | 0.04 | 95 | 1012.4 |
| 20260502105317 | 46 | 124 | 0.0 | 0.0 | 0.01 | 0.03 | 0.03 | 94 | 1012.1 |
| 20260502104314 | 46 | 124 | 0.0 | 0.0 | 0.00 | 0.02 | 0.02 | 94 | 1012.4 |
| 20260502103336 | 46 | 124 | 0.0 | 0.0 | 0.00 | 0.02 | 0.02 | 94 | 1012.2 |
| 20260502102329 | 46 | 124 | 0.0 | 0.0 | 0.00 | 0.02 | 0.02 | 94 | 1012.2 |
| 20260502101325 | 46 | 124 | 0.0 | 0.0 | 0.00 | 0.02 | 0.02 | 94 | 1012.2 |
| 20260502100316 | 46 | 124 | 0.0 | 0.0 | 0.00 | 0.02 | 0.02 | 94 | 1012.2 |
| 20260502091316 | 46 | 124 | 0.0 | 0.0 | 0.02 | 0.02 | 0.02 | 93 | 1011.8 |
| 20260502090337 | 46 | 124 | 0.0 | 0.0 | 0.02 | 0.02 | 0.02 | 93 | 1011.6 |
| 20260502071337 | 47 | 124 | 0.0 | 0.0 | 0.00 | 0.00 | 0.00 | 90 | 1011.6 |
| 20260502070333 | 47 | 124 | 0.0 | 0.0 | 0.00 | 0.00 | 0.00 | 89 | 1012.0 |
| 20260502065322 | 47 | 124 | 0.0 | 0.0 | 0.00 | 0.00 | 0.00 | 89 | 1011.7 |
| 20260502064316 | 47 | 124 | 0.0 | 0.0 | 0.00 | 0.00 | 0.00 | 88 | 1012.1 |
| 20260502063327 | 47 | 124 | 0.0 | 0.0 | 0.00 | 0.00 | 0.00 | 87 | 1011.9 |
| 20260502062346 | 48 | 124 | 0.0 | 0.0 | 0.00 | 0.00 | 0.00 | 85 | 1012.0 |
| 20260502061318 | 48 | 124 | 0.0 | 0.0 | 0.00 | 0.00 | 0.00 | 84 | 1011.8 |
| 20260502060313 | 48 | 124 | 0.0 | 0.0 | 0.00 | 0.00 | 0.00 | 82 | 1011.9 |
| 20260502055330 | 48 | 124 | 0.0 | 0.0 | 0.00 | 0.00 | 0.00 | 81 | 1012.0 |
| 20260502054351 | 48 | 124 | 0.0 | 0.0 | 0.00 | 0.00 | 0.00 | 81 | 1012.1 |
| 20260502053350 | 49 | 124 | 0.0 | 0.0 | 0.00 | 0.00 | 0.00 | 80 | 1012.2 |
| 20260502052324 | 49 | 124 | 0.0 | 0.9 | 0.00 | 0.00 | 0.00 | 79 | 1011.8 |
| 20260502051318 | 49 | 124 | 0.0 | 0.9 | 0.00 | 0.00 | 0.00 | 78 | 1012.1 |
| 20260502050314 | 49 | 124 | 0.0 | 0.9 | 0.00 | 0.00 | 0.00 | 78 | 1012.3 |
| 20260502045318 | 49 | 146 | 0.0 | 0.9 | 0.00 | 0.00 | 0.00 | 78 | 1012.1 |
| 20260502044312 | 49 | 147 | 0.0 | 0.0 | 0.00 | 0.00 | 0.00 | 78 | 1012.1 |
| 20260502043333 | 49 | 148 | 0.0 | 0.0 | 0.00 | 0.00 | 0.00 | 78 | 1012.1 |
| 20260502042331 | 49 | 148 | 0.0 | 0.9 | 0.00 | 0.00 | 0.00 | 78 | 1012.1 |
| 20260502041321 | 48 | 137 | 0.0 | 0.0 | 0.00 | 0.00 | 0.00 | 78 | 1012.2 |
| 20260502040320 | 48 | 138 | 0.0 | 0.0 | 0.00 | 0.00 | 0.00 | 77 | 1012.2 |
| 20260502035332 | 49 | 137 | 0.0 | 0.0 | 0.00 | 0.00 | 0.00 | 77 | 1012.2 |
| 20260502034329 | 49 | 138 | 0.0 | 0.0 | 0.00 | 0.00 | 0.00 | 75 | 1012.1 |
| 20260502033321 | 50 | 138 | 0.0 | 0.0 | 0.00 | 0.00 | 0.00 | 74 | 1012.2 |
| 20260502032315 | 50 | 137 | 0.0 | 0.0 | 0.00 | 0.00 | 0.00 | 74 | 1012.3 |
| 20260502031330 | 50 | 138 | 0.0 | 0.0 | 0.00 | 0.00 | 0.00 | 73 | 1012.3 |
| 20260502030321 | 50 | 138 | 0.0 | 0.0 | 0.00 | 0.00 | 0.00 | 72 | 1012.4 |
| 20260502025313 | 51 | 138 | 0.0 | 0.0 | 0.00 | 0.00 | 0.00 | 72 | 1012.5 |
| 20260502024354 | 51 | 138 | 0.0 | 0.0 | 0.00 | 0.00 | 0.00 | 71 | 1012.3 |
| 20260502023325 | 52 | 138 | 0.0 | 0.0 | 0.00 | 0.00 | 0.00 | 69 | 1012.3 |
| 20260502022312 | 52 | 138 | 0.0 | 0.9 | 0.00 | 0.00 | 0.00 | 68 | 1012.5 |
| 20260502021332 | 52 | 174 | 0.0 | 0.9 | 0.00 | 0.00 | 0.00 | 68 | 1012.4 |
| 20260502020327 | 52 | 137 | 0.0 | 0.9 | 0.00 | 0.00 | 0.00 | 67 | 1012.4 |
| 20260502015337 | 52 | 136 | 0.0 | 0.9 | 0.00 | 0.01 | 0.00 | 67 | 1012.4 |
| 20260502014326 | 53 | 165 | 0.0 | 0.9 | 0.00 | 0.01 | 0.00 | 66 | 1012.5 |
| 20260502013319 | 53 | 148 | 0.0 | 0.0 | 0.00 | 0.01 | 0.00 | 66 | 1012.6 |
| 20260502012314 | 53 | 148 | 0.0 | 0.9 | 0.00 | 0.01 | 0.00 | 66 | 1012.5 |
| 20260502011336 | 53 | 74 | 0.0 | 0.9 | 0.00 | 0.01 | 0.00 | 65 | 1012.4 |
| 20260502010329 | 53 | 139 | 0.0 | 1.7 | 0.00 | 0.01 | 0.00 | 63 | 1012.2 |
| 20260502005327 | 54 | 283 | 0.0 | 2.6 | 0.00 | 0.01 | 0.00 | 63 | 1012.2 |
| 20260502004320 | 54 | 281 | 0.0 | 0.9 | 0.00 | 0.01 | 0.00 | 62 | 1012.2 |
| 20260502003315 | 54 | 159 | 0.0 | 0.0 | 0.00 | 0.01 | 0.00 | 61 | 1012.1 |
| 20260502002337 | 55 | 160 | 0.0 | 0.0 | 0.00 | 0.01 | 0.00 | 60 | 1011.8 |
| 20260502001332 | 55 | 161 | 0.0 | 0.9 | 0.00 | 0.01 | 0.00 | 59 | 1011.6 |
| 20260502000327 | 56 | 109 | 0.0 | 3.5 | 0.00 | 0.01 | 0.00 | 57 | 1011.3 |
| 20260501235321 | 56 | 96 | 0.0 | 2.6 | 0.00 | 0.01 | 0.00 | 56 | 1011.1 |
| 20260501234339 | 57 | 131 | 0.0 | 1.7 | 0.00 | 0.01 | 0.00 | 54 | 1011.1 |
| 20260501233335 | 57 | 153 | 0.0 | 0.9 | 0.00 | 0.01 | 0.00 | 52 | 1010.8 |
| 20260501232333 | 58 | 210 | 0.0 | 6.1 | 0.00 | 0.01 | 0.00 | 49 | 1010.5 |
| 20260501231326 | 59 | 83 | 0.0 | 0.9 | 0.00 | 0.01 | 0.00 | 44 | 1010.3 |
| 20260501225328 | 61 | 173 | 0.0 | 1.7 | 0.00 | 0.02 | 0.00 | 40 | 1010.1 |
| 20260501224348 | 62 | 279 | 0.0 | 0.0 | 0.00 | 0.02 | 0.00 | 39 | 1010.1 |
| 20260501223326 | 63 | 326 | 0.0 | 0.0 | 0.00 | 0.02 | 0.00 | 37 | 1010.1 |
| 20260501222320 | 65 | 44 | 0.0 | 0.9 | 0.00 | 0.02 | 0.00 | 36 | 1010.1 |
| 20260501221343 | 65 | 284 | 0.0 | 2.6 | 0.00 | 0.02 | 0.00 | 37 | 1010.0 |
| 20260501220332 | 64 | 119 | 0.0 | 2.6 | 0.00 | 0.02 | 0.00 | 33 | 1010.0 |
| 20260501215325 | 64 | 7 | 0.9 | 2.6 | 0.00 | 0.09 | 0.00 | 35 | 1010.1 |
| 20260501214319 | 65 | 21 | 0.0 | 3.5 | 0.00 | 0.09 | 0.00 | 36 | 1010.1 |
| 20260501213356 | 64 | 283 | 0.9 | 1.7 | 0.00 | 0.09 | 0.00 | 35 | 1010.0 |
| 20260501212330 | 64 | 354 | 0.0 | 2.6 | 0.00 | 0.09 | 0.00 | 34 | 1010.2 |
| 20260501211324 | 65 | 352 | 0.9 | 3.5 | 0.00 | 0.09 | 0.00 | 32 | 1010.1 |
| 20260501210317 | 65 | 269 | 0.9 | 2.6 | 0.00 | 0.09 | 0.00 | 37 | 1010.0 |
| 20260501205314 | 65 | 283 | 0.9 | 2.6 | 0.00 | 0.09 | 0.00 | 33 | 1010.0 |
| 20260501204320 | 64 | 28 | 0.9 | 3.5 | 0.00 | 0.09 | 0.00 | 34 | 1010.2 |
| 20260501203311 | 64 | 58 | 0.9 | 4.3 | 0.00 | 0.09 | 0.00 | 35 | 1010.1 |